User: anonymous   Login
Location: Newsoms
(36.6240°N, 77.1250°W)
Time: 00:04:33
(UTC-04:00)
Language:

BREEZE-M DEB (TANK) - Orbit

View from above orbital plane
View from above orbital plane
View from above satellite
View from above satellite

Ground track
Ground track

The orbit data is extracted from the following two-line orbital elements,

1 29649U 06056B   16210.66129954  .00001668  00000-0  27381-3 0  9994
2 29649  49.4548 110.1442 5391683 319.6391  10.8514  4.98674613171619
Epoch (UTC): 28 July 2016 15:52:16
Eccentricity: 0.5391683
inclination: 49.4548°
perigee height: 291 km
apogee height: 15896 km
right ascension of ascending node: 110.1442°
argument of perigee: 319.6391°
revolutions per day: 4.98674613
mean anomaly at epoch: 10.8514°
orbit number at epoch: 17161

The dashed part of the orbit path shows where the satellite is in the earth's shadow,  

DLR